EW3693 Weather Reports


time (UTC)temp
F
wind
direction
speed
knots
gust
knots
rain 1hr
in
rain 24hr
in
rain mn
in
humidity
%
barometer
mb
20260902153518 72 0 7.0 12.2 0.00 0.00 0.00 62 1017.9
20260902152517 72 0 9.6 13.0 0.00 0.00 0.00 61 1017.9
20260902151518 73 0 7.8 11.3 0.00 0.00 0.00 60 1017.9
20260902150517 73 0 7.8 11.3 0.00 0.00 0.00 62 1018.0
20260902145517 73 0 8.7 12.2 0.00 0.00 0.00 58 1018.1
20260902144517 73 0 7.0 10.4 0.00 0.00 0.00 60 1018.1
20260902143517 74 0 8.7 13.9 0.00 0.00 0.00 61 1018.1
20260902142517 73 0 9.6 13.0 0.00 0.00 0.00 63 1018.2
20260902141518 74 0 9.6 13.0 0.00 0.00 0.00 61 1018.3
20260902140537 74 0 8.7 12.2 0.00 0.00 0.00 61 1018.3
20260902135518 74 0 11.3 15.6 0.00 0.01 0.00 60 1018.4
20260902134517 74 0 10.4 14.8 0.00 0.01 0.00 59 1018.4
20260902133517 74 0 9.6 14.8 0.00 0.01 0.00 66 1018.5
20260902132517 74 0 8.7 12.2 0.00 0.01 0.00 64 1018.4
20260902131520 75 0 8.7 11.3 0.00 0.01 0.00 66 1018.5
20260902130517 72 0 8.7 12.2 0.00 0.01 0.00 71 1018.6
20260902125557 70 0 8.7 10.4 0.00 0.01 0.00 68 1018.5
20260902124517 70 0 7.0 10.4 0.00 0.01 0.00 71 1018.6
20260902123517 70 0 10.4 13.0 0.00 0.01 0.00 70 1018.6
20260902122517 71 0 7.8 10.4 0.00 0.01 0.00 67 1018.8
20260902121517 69 0 8.7 15.6 0.00 0.01 0.00 64 1018.7
20260902120517 70 0 9.6 13.9 0.00 0.01 0.00 66 1018.8
20260902115517 70 0 7.8 13.9 0.00 0.01 0.00 66 1018.8
20260902114517 70 0 11.3 18.2 0.00 0.01 0.00 68 1018.9
20260902113517 71 0 11.3 16.5 0.00 0.01 0.00 68 1019.0
20260902112517 72 0 13.0 18.2 0.00 0.01 0.00 67 1019.0
20260902111517 71 0 8.7 16.5 0.00 0.01 0.00 72 1019.1
20260902110517 68 0 8.7 14.8 0.00 0.01 0.00 74 1019.1
20260902105517 69 0 9.6 13.0 0.00 0.01 0.00 73 1019.3
20260902104517 69 0 9.6 13.9 0.00 0.01 0.00 74 1019.4
20260902103517 67 0 8.7 13.0 0.00 0.01 0.00 75 1019.4
20260902102517 67 0 11.3 13.9 0.00 0.01 0.00 74 1019.4
20260902101517 69 0 11.3 15.6 0.00 0.01 0.00 75 1019.4
20260902100517 68 0 9.6 14.8 0.00 0.01 0.00 76 1019.5
20260902095517 68 0 7.8 12.2 0.00 0.01 0.00 76 1019.4
20260902094517 67 0 8.7 12.2 0.00 0.01 0.00 76 1019.6
20260902093517 66 0 6.1 11.3 0.00 0.01 0.00 79 1019.5
20260902092517 66 0 7.0 11.3 0.00 0.01 0.00 80 1019.5
20260902091557 64 0 8.7 13.9 0.00 0.01 0.00 80 1019.6
20260902090517 65 0 9.6 13.9 0.00 0.01 0.00 81 1019.6
20260902085517 67 0 8.7 11.3 0.00 0.01 0.00 81 1019.6
20260902084517 65 0 3.5 9.6 0.00 0.01 0.00 84 1019.7
20260902083516 64 0 3.5 9.6 0.00 0.01 0.00 85 1019.7
20260902082517 65 0 4.3 7.0 0.00 0.01 0.00 84 1019.7
20260902081516 62 0 3.5 7.8 0.00 0.01 0.00 88 1019.6
20260902080516 62 225 2.6 7.0 0.00 0.01 0.00 89 1019.6
20260902075536 62 0 2.6 7.0 0.00 0.01 0.00 90 1019.6
20260902074516 61 0 2.6 7.0 0.00 0.01 0.00 91 1019.6
20260902073516 60 225 2.6 5.2 0.00 0.01 0.00 91 1019.5
20260902072536 60 0 2.6 8.7 0.00 0.01 0.00 92 1019.6
20260902071516 60 0 5.2 9.6 0.00 0.01 0.00 93 1019.6
20260902070517 59 0 2.6 7.0 0.00 0.01 0.00 94 1019.5
20260902065517 58 225 0.9 4.3 0.00 0.01 0.00 96 1019.6
20260902064517 56 225 0.9 2.6 0.00 0.01 0.00 97 1019.6
20260902063516 56 225 0.9 2.6 0.00 0.01 0.00 97 1019.6
20260902062536 55 0 3.5 7.8 0.00 0.01 0.00 97 1019.6
20260902061516 55 0 4.3 7.8 0.00 0.01 0.00 97 1019.6
20260902060516 56 0 4.3 7.8 0.00 0.01 0.00 98 1019.6
20260902055517 54 225 0.9 4.3 0.00 0.01 0.00 98 1019.4
20260902054516 52 203 0.9 2.6 0.00 0.01 0.00 98 1019.4
20260902053516 52 203 0.9 3.5 0.00 0.01 0.00 98 1019.4
20260902052516 52 203 0.9 2.6 0.00 0.01 0.00 98 1019.4
20260902051518 51 180 0.9 1.7 0.00 0.01 0.00 98 1019.4
20260902050518 51 0.0 1.7 0.00 0.01 0.00 98 1019.2
20260902045518 51 0.0 0.9 0.00 0.01 0.00 98 1019.2
20260902044518 51 0.0 1.7 0.00 0.01 0.00 97 1019.1
20260902043518 51 203 0.9 2.6 0.00 0.01 0.00 98 1019.2
20260902042518 51 203 0.9 1.7 0.00 0.01 0.00 97 1019.2
20260902041518 50 203 1.7 3.5 0.00 0.01 0.00 97 1019.3
20260902040518 50 0.0 1.7 0.00 0.01 0.00 97 1019.2
20260902035518 50 0.0 0.0 0.00 0.02 0.00 97 1019.3
20260902034518 50 0.0 0.9 0.00 0.02 0.00 97 1019.2
20260902033518 50 248 0.9 1.7 0.00 0.02 0.00 97 1019.3
20260902032518 50 0.0 1.7 0.00 0.02 0.00 97 1019.2
20260902031518 50 0.0 0.0 0.00 0.02 0.00 97 1019.3
20260902030518 51 0.0 0.9 0.00 0.02 0.00 97 1019.2
20260902025518 51 0 0.9 1.7 0.00 0.02 0.00 97 1019.2
20260902024518 52 0 0.9 1.7 0.00 0.02 0.00 97 1019.2
20260902023538 51 0 0.9 1.7 0.00 0.02 0.00 97 1019.2
20260902022538 51 0.0 1.7 0.00 0.02 0.00 97 1019.1
20260902021518 51 0.0 0.9 0.00 0.02 0.00 97 1019.1
20260902020518 52 248 0.9 1.7 0.00 0.02 0.00 97 1019.0
20260902015518 52 0.0 0.0 0.00 0.02 0.00 97 1018.9
20260902014537 52 0.0 0.0 0.00 0.02 0.00 97 1018.9
20260902013518 52 0.0 0.0 0.00 0.02 0.00 97 1018.8
20260902012518 52 248 0.9 1.7 0.00 0.02 0.00 96 1018.9
20260902011518 53 248 0.9 1.7 0.00 0.02 0.00 96 1018.9
20260902010538 53 248 0.9 1.7 0.00 0.02 0.00 96 1019.0
20260902005518 53 248 1.7 2.6 0.00 0.02 0.00 96 1019.0
20260902004518 54 0 1.7 2.6 0.00 0.02 0.00 96 1019.0
20260902003518 54 248 2.6 4.3 0.00 0.02 0.00 96 1019.1
20260902002518 55 0 2.6 3.5 0.00 0.02 0.00 95 1019.2
20260902001517 56 0 3.5 5.2 0.00 0.02 0.00 95 1019.3
20260902000518 56 0 5.2 7.0 0.00 0.02 0.00 95 1019.3
20260901235517 56 0 7.0 8.7 0.00 0.02 0.00 95 1019.3
20260901234518 57 0 7.8 10.4 0.00 0.02 0.00 95 1019.2
20260901233518 57 0 7.0 8.7 0.00 0.02 0.00 95 1019.2
20260901232538 58 0 7.0 9.6 0.00 0.02 0.00 95 1019.2
20260901231517 57 0 7.8 10.4 0.00 0.02 0.00 95 1019.2
20260901230518 57 0 7.8 10.4 0.00 0.02 0.00 95 1019.1
20260901225517 57 0 7.8 11.3 0.00 0.02 0.00 94 1019.0
20260901224518 57 0 9.6 13.0 0.00 0.02 0.00 94 1018.9
20260901223557 57 0 8.7 10.4 0.00 0.02 0.00 94 1019.0
20260901222537 57 0 8.7 11.3 0.00 0.02 0.00 94 1019.1
20260901221537 57 0 8.7 11.3 0.00 0.02 0.00 94 1019.1
20260901220518 57 0 8.7 10.4 0.00 0.02 0.00 94 1019.0
20260901215517 57 0 9.6 13.9 0.00 0.02 0.02 94 1019.1
20260901214517 57 0 8.7 12.2 0.00 0.02 0.02 93 1019.0
20260901213518 57 0 8.7 11.3 0.00 0.02 0.02 93 1018.9
20260901212517 57 0 8.7 12.2 0.00 0.02 0.02 93 1018.9
20260901211517 58 0 8.7 11.3 0.00 0.02 0.02 92 1018.9
20260901210537 58 0 7.8 11.3 0.00 0.02 0.02 92 1018.9
20260901205517 58 0 7.8 9.6 0.00 0.02 0.02 92 1018.8
20260901204517 59 0 8.7 11.3 0.00 0.02 0.02 93 1018.8
20260901203517 58 0 9.6 13.9 0.00 0.02 0.02 94 1018.8
20260901202517 58 0 5.2 7.8 0.00 0.02 0.02 94 1018.7
20260901201517 57 0 4.3 7.0 0.00 0.02 0.02 94 1018.7
20260901200517 57 0 4.3 7.8 0.00 0.02 0.02 94 1018.6
20260901195517 57 0 4.3 7.8 0.00 0.02 0.02 94 1018.7
20260901194517 57 0 2.6 5.2 0.00 0.02 0.02 93 1018.6
20260901193537 58 248 3.5 6.1 0.00 0.02 0.02 93 1018.6
20260901192517 58 0 4.3 7.8 0.00 0.02 0.02 93 1018.6
20260901191517 58 0 5.2 7.8 0.00 0.02 0.02 93 1018.5
20260901190537 59 0 6.1 8.7 0.00 0.02 0.02 92 1018.4
20260901185517 59 0 7.0 10.4 0.00 0.02 0.02 92 1018.3
20260901184517 59 0 7.8 10.4 0.00 0.02 0.02 93 1018.3
20260901183518 59 0 6.1 8.7 0.00 0.02 0.02 92 1018.1
20260901182517 60 0 7.0 9.6 0.00 0.02 0.02 92 1018.0
20260901181517 60 0 7.0 10.4 0.00 0.02 0.02 91 1017.9
20260901180517 60 0 7.0 9.6 0.00 0.02 0.02 91 1017.8
20260901175517 61 0 6.1 9.6 0.00 0.02 0.02 91 1017.9
20260901174517 61 0 6.1 8.7 0.00 0.02 0.02 90 1017.8
20260901173537 62 0 6.1 8.7 0.00 0.02 0.02 90 1017.7
20260901172517 63 0 7.0 10.4 0.00 0.02 0.02 88 1017.7
20260901171517 63 0 7.0 8.7 0.00 0.02 0.02 88 1017.5
20260901170517 63 0 7.0 8.7 0.00 0.02 0.02 88 1017.5
20260901165517 64 0 7.8 9.6 0.00 0.14 0.02 88 1017.5
20260901164517 64 0 8.7 10.4 0.00 0.14 0.02 87 1017.6
20260901163517 64 0 10.4 16.5 0.00 0.14 0.02 86 1017.5
20260901162537 65 0 13.0 19.1 0.00 0.14 0.02 86 1017.6
20260901161517 66 0 16.5 21.7 0.00 0.14 0.02 85 1017.4
20260901160517 65 0 13.9 17.4 0.00 0.14 0.02 86 1017.6
20260901155517 66 0 13.9 18.2 0.00 0.24 0.02 86 1017.3
20260901154517 64 0 13.0 19.1 0.00 0.24 0.02 88 1017.3